Location: Bussy-Saint-Georges
(48.8410°N, 2.7017°E)
Time: 21:25:04
(UTC+00:00)

Cosmos 1703 - Pass Details

Date: 18 October 2021
Orbit: 521 x 538 km, 82.5° (Epoch: 07 December)

Event Time Altitude Azimuth Distance (km) Brightness Sun altitude
Rises 17:41:23 0° 354° (N) 2,699 6.9 -8.6°
Reaches altitude 10° 17:43:37 10° 1° (N) 1,800 5.9 -9.0°
Maximum altitude 17:47:27 47° 76° (ENE) 712 3.5 -9.6°
Drops below altitude 10° 17:51:14 10° 151° (SSE) 1,775 5.7 -10.2°
Sets 17:53:25 0° 158° (SSE) 2,656 6.6 -10.6°
